TimeEDT,TemperatureF,Dew PointF,Humidity,Sea Level PressureIn,VisibilityMPH,Wind Direction,Wind SpeedMPH,Gust SpeedMPH,PrecipitationIn,Events,Conditions,WindDirDegrees,DateUTC
12:54 AM,61.0,57.9,90,29.97,10.0,Calm,Calm,-,N/A,,Partly Cloudy,0,2013-05-21 04:54:00
1:54 AM,61.0,57.0,87,29.96,10.0,Calm,Calm,-,N/A,,Partly Cloudy,0,2013-05-21 05:54:00
2:54 AM,59.0,57.0,93,29.95,10.0,Calm,Calm,-,N/A,,Clear,0,2013-05-21 06:54:00
3:54 AM,57.9,55.9,93,29.94,8.0,Calm,Calm,-,N/A,,Clear,0,2013-05-21 07:54:00
4:54 AM,57.9,55.9,93,29.95,8.0,Calm,Calm,-,N/A,,Clear,0,2013-05-21 08:54:00
5:54 AM,57.9,57.0,97,29.97,6.0,ENE,5.8,-,N/A,,Scattered Clouds,60,2013-05-21 09:54:00
6:01 AM,59.0,57.2,94,29.96,6.0,ENE,6.9,-,N/A,,Mostly Cloudy,70,2013-05-21 10:01:00
6:39 AM,57.2,55.4,94,29.98,2.0,ENE,6.9,-,N/A,,Overcast,60,2013-05-21 10:39:00
6:54 AM,57.9,55.9,93,29.99,2.0,NE,5.8,-,N/A,,Overcast,50,2013-05-21 10:54:00
7:03 AM,57.2,55.4,94,29.98,0.2,East,5.8,-,N/A,,Overcast,80,2013-05-21 11:03:00
7:13 AM,57.2,55.4,94,29.97,0.2,East,8.1,-,N/A,Fog,Fog,90,2013-05-21 11:13:00
7:18 AM,57.2,57.2,100,29.97,0.0,East,6.9,-,N/A,Fog,Fog,90,2013-05-21 11:18:00
7:54 AM,57.0,55.9,96,29.96,0.0,ESE,5.8,-,N/A,Fog,Fog,110,2013-05-21 11:54:00
8:22 AM,57.2,55.4,94,29.95,0.0,ESE,8.1,-,N/A,Fog,Fog,110,2013-05-21 12:22:00
8:30 AM,57.2,55.4,94,29.95,0.2,ESE,8.1,-,N/A,Fog,Fog,110,2013-05-21 12:30:00
8:54 AM,57.0,55.9,96,29.96,0.2,ENE,6.9,-,N/A,Fog,Fog,70,2013-05-21 12:54:00
9:00 AM,57.2,55.4,94,29.96,0.2,ENE,6.9,-,N/A,Fog,Fog,70,2013-05-21 13:00:00
9:54 AM,59.0,57.0,93,29.95,0.2,North,3.5,-,N/A,,Overcast,10,2013-05-21 13:54:00
10:09 AM,60.8,57.2,88,29.95,1.0,East,6.9,-,N/A,,Overcast,90,2013-05-21 14:09:00
10:54 AM,60.1,57.0,90,29.93,1.0,East,8.1,-,N/A,,Overcast,80,2013-05-21 14:54:00
11:42 AM,62.6,59.0,88,29.92,1.0,ENE,6.9,-,N/A,,Mostly Cloudy,70,2013-05-21 15:42:00
11:50 AM,64.4,59.0,83,29.93,2.0,NE,15.0,-,N/A,,Mostly Cloudy,40,2013-05-21 15:50:00
11:54 AM,64.0,57.9,80,29.92,2.0,NE,13.8,-,N/A,,Mostly Cloudy,40,2013-05-21 15:54:00
12:54 PM,62.1,57.9,86,29.90,2.0,East,13.8,-,N/A,,Scattered Clouds,80,2013-05-21 16:54:00
1:01 PM,62.6,57.2,82,29.90,1.0,ENE,12.7,-,N/A,,Scattered Clouds,70,2013-05-21 17:01:00
1:54 PM,63.0,57.9,84,29.91,9.0,East,13.8,-,N/A,,Scattered Clouds,80,2013-05-21 17:54:00
2:54 PM,62.1,55.0,78,29.91,10.0,NE,18.4,25.3,N/A,,Overcast,50,2013-05-21 18:54:00
3:37 PM,60.8,53.6,77,29.93,10.0,NE,15.0,24.2,N/A,,Overcast,50,2013-05-21 19:37:00
3:54 PM,59.0,53.1,81,29.93,10.0,NNE,16.1,26.5,N/A,,Overcast,30,2013-05-21 19:54:00
4:21 PM,55.4,51.8,88,29.94,10.0,ENE,16.1,23.0,N/A,,Overcast,60,2013-05-21 20:21:00
4:40 PM,55.4,51.8,88,29.95,9.0,ENE,13.8,25.3,N/A,,Overcast,60,2013-05-21 20:40:00
4:54 PM,54.0,51.1,90,29.96,8.0,ENE,19.6,23.0,N/A,,Overcast,70,2013-05-21 20:54:00
5:09 PM,53.6,51.8,94,29.97,1.0,ENE,19.6,24.2,N/A,,Overcast,70,2013-05-21 21:09:00
5:54 PM,53.1,51.1,93,29.97,1.0,ENE,17.3,24.2,N/A,,Overcast,60,2013-05-21 21:54:00
6:29 PM,51.8,51.8,100,30.00,0.2,NE,13.8,-,N/A,,Overcast,50,2013-05-21 22:29:00
6:54 PM,52.0,50.0,93,30.02,0.8,NE,5.8,-,N/A,,Overcast,50,2013-05-21 22:54:00
7:46 PM,51.8,51.8,100,30.00,3.0,NE,8.1,-,0.00,Rain,Light Rain,50,2013-05-21 23:46:00
7:54 PM,52.0,51.1,97,30.00,3.0,NE,11.5,18.4,0.00,,Overcast,50,2013-05-21 23:54:00
8:28 PM,51.8,50.0,94,30.01,3.0,NE,5.8,-,0.00,,Overcast,40,2013-05-22 00:28:00
8:54 PM,52.0,50.0,93,30.00,3.0,NE,9.2,-,0.00,,Overcast,40,2013-05-22 00:54:00
9:54 PM,52.0,50.0,93,29.97,7.0,NE,12.7,-,N/A,,Overcast,50,2013-05-22 01:54:00
10:46 PM,51.8,50.0,94,29.99,5.0,NE,9.2,-,0.00,,Light Drizzle,50,2013-05-22 02:46:00
10:54 PM,52.0,50.0,93,29.99,5.0,NE,13.8,-,0.00,,Light Drizzle,40,2013-05-22 02:54:00
11:54 PM,52.0,50.0,93,30.00,5.0,NNE,12.7,-,0.00,,Overcast,20,2013-05-22 03:54:00